Plymouth, NH

2:47 PM EST on November 24, 2017 (GMT -0500)
Plymouth

Weather History for K1P1 - February, 2013

Change the Weather History Date:

Wednesday, February 27, 2013

  Actual Average (KLCI) Record (KLCI)
Temperature  
Mean Temperature 34 °F -  
Max Temperature 35 °F 33 °F 53 °F (2009)
Min Temperature 32 °F 13 °F -9 °F (1993)
Degree Days  
Heating Degree Days 32    
Moisture  
Dew Point 30 °F    
Average Humidity 88    
Maximum Humidity 96    
Minimum Humidity 76    
Precipitation  
Precipitation 0.06 in - - ()
Sea Level Pressure  
Sea Level Pressure 29.92 in    
Wind  
Wind Speed 6 mph (East)    
Max Wind Speed 15 mph    
Max Gust Speed 24 mph    
Visibility 5 miles    
Events Snow    
Averages and records for this station are not official NWS values.
T = Trace of Precipitation, MM = Missing Value Source: NWS Daily Summary

Daily Weather History Graph

Daily Weather History Graph

Search for Another Location

Airport or City:

Trip Planner

Search our weather history database for the weather conditions in past years. The results will help you decide how hot, cold, wet, or windy it might be!

Date:

Astronomy

Feb. 27, 2013 Rise Set
Actual Time 6:26 AM EST 5:33 PM EST
Civil Twilight 5:57 AM EST 6:02 PM EST
Nautical Twilight 5:24 AM EST 6:35 PM EST
Astronomical Twilight 4:51 AM EST 7:08 PM EST
Moon 7:57 PM EST (2/27) 6:55 AM EST (2/27)
Length of Visible Light 12h 04m
Length of Day
11h 06m
Waning Gibbous, 96% of the Moon is Illuminated
Feb 27
Waning Gibbous
Mar 4
Last Quarter
Mar 11
New
Mar 19
First Quarter
Mar 27
Full

Hourly Weather History & Observations

Time (EST) Temp. Windchill Dew Point Humidity Pressure Visibility Wind Dir Wind Speed Gust Speed Precip Events Conditions
12:15 AM 32.0 °F 28.7 °F 27.9 °F 85% 30.17 in 10.0 mi ESE 3.5 mph - N/A   Unknown
12:35 AM 32.0 °F - 28.4 °F 87% 30.17 in 10.0 mi Calm Calm - N/A   Unknown
12:55 AM 32.7 °F 28.3 °F 27.9 °F 82% 30.18 in 10.0 mi ESE 4.6 mph - N/A   Unknown
1:15 AM 33.1 °F 28.7 °F 27.3 °F 79% 30.16 in 10.0 mi East 4.6 mph - N/A   Unknown
1:35 AM 32.9 °F 27.5 °F 27.3 °F 80% 30.15 in 10.0 mi East 5.8 mph - N/A   Unknown
2:15 AM 32.9 °F 27.5 °F 27.5 °F 81% 30.15 in 10.0 mi SE 5.8 mph - N/A   Unknown
2:35 AM 33.4 °F 28.1 °F 27.1 °F 78% 30.14 in 10.0 mi ESE 5.8 mph - N/A   Unknown
2:55 AM 32.5 °F 29.3 °F 27.5 °F 82% 30.14 in 10.0 mi East 3.5 mph - N/A   Unknown
3:15 AM 33.1 °F 28.7 °F 27.3 °F 79% 30.13 in 10.0 mi East 4.6 mph - N/A   Unknown
3:35 AM 33.8 °F 28.6 °F 27.1 °F 77% 30.14 in 10.0 mi East 5.8 mph - N/A   Unknown
3:55 AM 34.2 °F 30.0 °F 27.3 °F 76% 30.14 in 10.0 mi ESE 4.6 mph - N/A   Unknown
4:15 AM 34.2 °F 29.0 °F 27.3 °F 76% 30.13 in 10.0 mi East 5.8 mph - N/A   Unknown
4:35 AM 34.3 °F 27.7 °F 27.5 °F 76% 30.12 in 10.0 mi East 8.1 mph - N/A   Unknown
4:55 AM 34.2 °F 27.5 °F 27.3 °F 76% 30.10 in 10.0 mi East 8.1 mph - N/A   Unknown
5:15 AM 34.2 °F 27.5 °F 28.0 °F 78% 30.09 in 10.0 mi East 8.1 mph - N/A Snow Light Snow
5:35 AM 33.8 °F 29.6 °F 28.4 °F 81% 30.08 in 7.0 mi East 4.6 mph - N/A Snow Light Snow
5:55 AM 32.9 °F 29.8 °F 29.5 °F 87% 30.08 in 4.0 mi SE 3.5 mph - N/A Snow Light Snow
6:15 AM 32.0 °F 28.7 °F 30.4 °F 94% 30.07 in 1.5 mi SE 3.5 mph - N/A Snow Light Snow
6:35 AM 32.0 °F - 30.9 °F 96% 30.06 in 2.0 mi Calm Calm - N/A Snow Light Snow
7:15 AM 32.0 °F - 30.9 °F 96% 30.04 in 1.8 mi Calm Calm - N/A Snow Light Snow
7:35 AM 32.0 °F 28.7 °F 31.1 °F 96% 30.03 in 2.5 mi SSE 3.5 mph - N/A Snow Light Snow
7:55 AM 32.5 °F 25.5 °F 31.6 °F 96% 30.01 in 2.5 mi East 8.1 mph - N/A Snow Light Snow
8:15 AM 33.6 °F 27.5 °F 31.6 °F 92% 30.01 in 2.0 mi ESE 6.9 mph 18.4 mph N/A Snow Light Snow
8:35 AM 33.8 °F 30.8 °F 31.6 °F 92% 30.00 in 10.0 mi ESE 3.5 mph - N/A Snow Light Snow
8:55 AM 34.3 °F 27.0 °F 31.5 °F 89% 30.00 in 10.0 mi East 9.2 mph - N/A   Unknown
9:15 AM 34.7 °F 29.6 °F 31.6 °F 89% 29.98 in 10.0 mi ESE 5.8 mph - N/A   Unknown
9:35 AM 35.1 °F 29.3 °F 31.3 °F 86% 29.97 in 10.0 mi East 6.9 mph - N/A   Unknown
10:15 AM 35.4 °F 27.3 °F 31.1 °F 84% 29.94 in 4.0 mi East 11.5 mph 18.4 mph N/A Snow Light Snow
10:35 AM 35.6 °F 28.6 °F 31.3 °F 84% 29.94 in 5.0 mi East 9.2 mph 18.4 mph N/A Snow Light Snow
10:55 AM 34.9 °F 26.2 °F 31.1 °F 86% 29.93 in 5.0 mi East 12.7 mph 18.4 mph N/A Snow Light Snow
11:15 AM 34.7 °F 26.4 °F 31.1 °F 87% 29.92 in 2.0 mi ESE 11.5 mph 20.7 mph N/A Snow Light Snow
11:35 AM 33.8 °F 26.4 °F 31.6 °F 92% 29.92 in 0.8 mi East 9.2 mph - N/A Snow Light Snow
11:55 AM 33.8 °F 25.8 °F 32.0 °F 93% 29.90 in 1.0 mi East 10.4 mph - 0.01 in Snow Light Snow
12:15 PM 33.8 °F 25.8 °F 32.0 °F 93% 29.89 in 1.0 mi East 10.4 mph 18.4 mph 0.01 in Snow Light Snow
12:35 PM 33.4 °F 27.3 °F 32.0 °F 94% 29.87 in 1.2 mi East 6.9 mph - 0.02 in Snow Light Snow
12:55 PM 34.0 °F 25.5 °F 32.0 °F 92% 29.87 in 1.5 mi East 11.5 mph - 0.02 in Snow Light Snow
1:15 PM 33.8 °F 27.7 °F 32.2 °F 94% 29.86 in 1.5 mi East 6.9 mph - 0.01 in Snow Light Snow
1:35 PM 34.5 °F 27.9 °F 32.2 °F 91% 29.84 in 5.0 mi East 8.1 mph - 0.01 in Snow Light Snow
2:15 PM 34.7 °F 25.9 °F 32.0 °F 90% 29.82 in 4.0 mi East 12.7 mph 18.4 mph N/A Snow Light Snow
2:35 PM 34.9 °F 28.3 °F 32.0 °F 89% 29.81 in 5.0 mi ESE 8.1 mph 18.4 mph N/A Snow Light Snow
2:55 PM 35.1 °F 26.9 °F 32.0 °F 89% 29.81 in 7.0 mi East 11.5 mph 16.1 mph N/A Snow Light Snow
3:15 PM 34.2 °F 27.5 °F 32.0 °F 92% 29.81 in 1.5 mi East 8.1 mph - N/A Snow Light Snow
3:35 PM 33.8 °F 25.8 °F 32.0 °F 93% 29.81 in 2.0 mi East 10.4 mph - N/A Snow Light Snow
3:55 PM 33.8 °F 27.0 °F 31.8 °F 92% 29.81 in 1.5 mi East 8.1 mph 21.9 mph N/A Snow Light Snow
4:15 PM 33.4 °F 24.8 °F 31.8 °F 94% 29.79 in 1.5 mi East 11.5 mph 17.3 mph N/A Snow Light Snow
4:35 PM 33.4 °F 26.6 °F 31.8 °F 94% 29.79 in 1.5 mi East 8.1 mph - N/A Snow Light Snow
4:55 PM 33.3 °F 27.9 °F 31.6 °F 94% 29.79 in 1.2 mi East 5.8 mph 20.7 mph N/A Snow Light Snow
5:15 PM 33.3 °F 25.1 °F 31.3 °F 92% 29.79 in 1.8 mi East 10.4 mph 17.3 mph N/A Snow Light Snow
5:35 PM 33.1 °F 23.4 °F 31.1 °F 92% 29.77 in 1.8 mi East 13.8 mph 19.6 mph N/A Snow Light Snow
6:15 PM 32.9 °F 23.7 °F 30.7 °F 92% 29.77 in 1.8 mi East 12.7 mph 23.0 mph N/A Snow Light Snow
6:35 PM 32.2 °F 23.2 °F 30.9 °F 95% 29.77 in 1.2 mi East 11.5 mph 17.3 mph 0.01 in Snow Light Snow
6:55 PM 32.0 °F 22.1 °F 30.9 °F 96% 29.76 in 1.2 mi East 13.8 mph - 0.01 in Snow Light Snow
7:35 PM 32.0 °F 22.5 °F 29.7 °F 91% 29.74 in 1.5 mi East 12.7 mph 21.9 mph 0.01 in Snow Light Snow
7:55 PM 32.0 °F 21.6 °F 29.1 °F 89% 29.73 in 2.5 mi East 15.0 mph 24.2 mph 0.01 in Snow Light Snow
8:15 PM 32.0 °F 22.1 °F 28.9 °F 88% 29.71 in 2.5 mi East 13.8 mph 24.2 mph N/A Snow Light Snow
8:35 PM 32.2 °F 23.8 °F 28.6 °F 87% 29.70 in 4.0 mi East 10.4 mph 24.2 mph N/A Snow Light Snow
9:15 PM 32.7 °F 25.0 °F 28.9 °F 86% 29.70 in 5.0 mi East 9.2 mph 17.3 mph N/A Snow Light Snow
9:35 PM 32.9 °F 26.7 °F 28.6 °F 84% 29.70 in 5.0 mi ESE 6.9 mph 24.2 mph N/A Snow Light Snow
9:55 PM 32.9 °F 25.9 °F 28.4 °F 84% 29.70 in 7.0 mi East 8.1 mph - N/A   Unknown
10:15 PM 32.5 °F 27.1 °F 29.1 °F 87% 29.69 in 3.0 mi East 5.8 mph - N/A Snow Light Snow
10:35 PM 32.0 °F 27.5 °F 29.8 °F 92% 29.68 in 3.0 mi ESE 4.6 mph - N/A Snow Light Snow
10:55 PM 32.0 °F - 29.8 °F 92% 29.67 in 5.0 mi Calm Calm - N/A Snow Light Snow
11:15 PM 32.2 °F - 29.7 °F 90% 29.67 in 5.0 mi Calm Calm - N/A Snow Light Snow